Weather in Drogichin

Belarus     52˚11′07″N   25˚09′36″E
temp.,
°C
wind,
m/s
gust,
m/s
humid.,
%
clouds,
%
prec.,
mm/h
press.,
hPa
HPBL,
m
2 december, wed
wed200:00−5˚ese34910 0.0 103089
03:00−5˚e34920 0.0 103076
06:00−6˚e34920 0.0 102980
09:00−6˚e33930 0.0 102986
12:00−3˚e35902 0.0 1029259
15:00−2˚e349341 0.0 1027272
18:00−3˚e469783 0.1 1026255
21:00−2˚se469091 0.1 1025476
3 december, thu
thu300:00−2˚se3793100 0.0 1024420
03:00−2˚se3694100 0.1 1024408
06:00−2˚se4794100 0.1 1022419
09:00−1˚se5985100 0.1 1022482
12:00se6108396 0.0 1021780
15:00se6108688 0.0 1019615
18:00se61287100 0.0 1018549
21:00−1˚se7158868 0.0 1018512
4 december, fri
fri400:00−1˚se7139165 0.0 1017549
03:00−1˚se6138780 0.0 1016540
06:00+2˚se7149260 0.0 1014647
09:00+3˚se7159480 0.0 1014635
12:00+4˚se81690100 0.0 1013762
15:00+5˚se81690100 0.0 1013686
18:00+5˚se81785100 0.0 1013655
21:00+4˚se91784100 0.0 1013640
5 december, sat
sat500:00+4˚se8178692 0.0 1014568
03:00+5˚se8158991 0.0 1014560
06:00+6˚se71490100 0.0 1014569
09:00+7˚se71490100 0.0 1015549
12:00+8˚se71487100 0.0 1016605
15:00+8˚se71485100 0.0 1016586
18:00+8˚se71487100 0.0 1016579
21:00+8˚se8158599 0.0 1017605
6 december, sun
sun600:00+8˚se8148498 0.0 1017764
03:00+7˚se8148499 0.0 1017629
06:00+7˚se81483100 0.0 1016627
09:00+6˚se91580100 0.0 1016745
12:00+5˚se91478100 0.0 1017832
15:00+5˚se91375100 0.0 1016908
18:00+4˚se91478100 0.0 1015937
21:00+4˚se91579100 0.0 1016835